User: anonymous   Login
Location: Enid
(36.3960°N, 97.8780°W)
Time: 12:36:19
(UTC-05:00)
Language:

Hubble Space Telescope - Orbit

View from above orbital plane
View from above orbital plane
View from above satellite
View from above satellite

Ground track
Ground track

The orbit data is extracted from the following two-line orbital elements,

1 20580U 90037B   15187.97715211  .00001720  00000-0  99031-4 0  9995
2 20580 028.4707 023.6202 0003174 090.2070 034.0495 15.07523710182808
Epoch (UTC): 06 July 2015 23:27:05
Eccentricity: 0.0003174
inclination: 28.4707°
perigee height: 541 km
apogee height: 546 km
right ascension of ascending node: 23.6202°
argument of perigee: 90.2070°
revolutions per day: 15.07523710
mean anomaly at epoch: 34.0495°
orbit number at epoch: 18280

The dashed part of the orbit path shows where the satellite is in the earth's shadow,  

DLR